[ ตารางข้อมูล ] [ Min-Max ] [ วันนี้4 ] [ วันนี้2 ] [ เทียบ3วัน A ] [ เทียบ4วัน B ]   

วันนี้2   [ ◀ ช่วงเก่ากว่า ] [ ช่วงที่ 225 ] [ ช่วงใหม่กว่า ▶ ] [ ล่าสุด ]    [ 3 ชั่วโมง ] [ 6 ชั่วโมง ] [ 12 ชั่วโมง ] [ 24 ชั่วโมง ]   วันนี้2

อุณภูมิตู้ Knockdown4529  ราย 6 ชั่วโมง  ที่วัดได้ ในช่วงวันเวลา 10/03/2026 (18:40) ถึง 11/03/2026 (00:40) 
ความชื้นในตู้ Knockdown4529  ราย 6 ชั่วโมง  ที่วัดได้ ในช่วงวันเวลา 10/03/2026 (18:40) ถึง 11/03/2026 (00:40) 

 
DS18B20SHTC3 
IDDate d/m/Y & Timedata1
สูง
data2
ต่ำ
data3
นอก
temp
pcb
hum
pcb
Time
 1317  11/03/2026 00:36:35  27.8  27.9  27.4  27.9  69.9  00:36 
 1316  11/03/2026 00:31:54  27.9  27.9  27.4  28.1  70.0  00:31 
 1315  11/03/2026 00:27:12  27.9  27.9  27.4  27.8  70.0  00:27 
 1314  11/03/2026 00:22:30  27.9  28.0  27.4  27.7  69.8  00:22 
 1313  11/03/2026 00:17:49  27.9  28.0  27.4  27.9  69.9  00:17 
 1312  11/03/2026 00:13:08  27.9  28.0  27.4  28.0  69.9  00:13 
 1311  11/03/2026 00:08:25  27.9  28.0  27.4  27.9  69.8  00:08 
 1310  11/03/2026 00:03:44  27.9  28.1  27.4  28.0  69.8  00:03 
 1309  10/03/2026 23:59:02  27.9  28.1  27.4  28.1  69.8  23:59 
 1308  10/03/2026 23:54:21  27.9  28.1  27.4  28.1  69.7  23:54 
 1307  10/03/2026 23:49:39  28.0  28.1  27.4  28.1  69.8  23:49 
 1306  10/03/2026 23:44:57  28.0  28.1  27.5  28.0  69.8  23:44 
 1305  10/03/2026 23:40:16  28.0  28.1  27.5  28.1  69.8  23:40 
 1304  10/03/2026 23:35:35  28.1  28.2  27.5  28.0  69.8  23:35 
 1303  10/03/2026 23:30:53  28.1  28.2  27.5  28.2  69.8  23:30 
 1302  10/03/2026 23:26:11  28.1  28.2  27.5  28.1  69.7  23:26 
 1301  10/03/2026 23:21:30  28.1  28.2  27.6  28.1  69.7  23:21 
 1300  10/03/2026 23:16:48  28.1  28.2  27.6  28.0  69.7  23:16 
 1299  10/03/2026 23:12:06  28.1  28.2  27.7  28.1  69.6  23:12 
 1298  10/03/2026 23:07:24  28.2  28.2  27.7  28.1  69.7  23:07 
 1297  10/03/2026 23:02:43  28.2  28.2  27.7  28.1  69.7  23:02 
 1296  10/03/2026 22:58:01  28.2  28.3  27.7  28.2  69.6  22:58 
 1295  10/03/2026 22:53:19  28.2  28.3  27.7  28.2  69.7  22:53 
 1294  10/03/2026 22:48:37  28.2  28.3  27.7  28.4  69.7  22:48 

Data every 5 minute.


ใช้เวลาประมวลผล 0.00298 วินาที